Location: Coupvray
(48.8929°N, 2.7967°E)
Time: 21:00:28
(UTC+00:00)

Cosmos 724 - Pass Details

Date: 29 October 2020
Orbit: 851 x 943 km, 65.6° (Epoch: 01 December)

Event Time Altitude Azimuth Distance (km) Brightness Sun altitude
Exits shadow 03:23:47 15° 347° (NNW) 2,255 6.4 -31.2°
Maximum altitude 03:25:10 16° 3° (N) 2,198 6.5 -30.9°
Drops below altitude 10° 03:28:52 10° 40° (NE) 2,632 7.4 -30.4°
Sets 03:32:32 0° 61° (ENE) 3,590 8.6 -29.8°
